Printer-friendly version

IAU Minor Planet Center

Minor Planet Center

MPEC 1999-F05: 1999 EE5

The following Minor Planet Electronic Circular may be linked-to from your own Web pages, but must not otherwise be redistributed electronically.


Read MPEC 1999-F04 Read MPEC 1999-F06


M.P.E.C. 1999-F05                                Issued 1999 Mar. 17, 15:59 UT

     The Minor Planet Electronic Circulars contain information on unusual
         minor planets and routine data on comets.  They are published
   on behalf of Commission 20 of the International Astronomical Union by the
          Minor Planet Center, Smithsonian Astrophysical Observatory,
                          Cambridge, MA 02138, U.S.A.

             BMARSDEN@CFA.HARVARD.EDU or GWILLIAMS@CFA.HARVARD.EDU
          URL http://cfa-www.harvard.edu/iau/mpc.html  ISSN 1523-6714

                                   1999 EE5

Observations:
     J99E05E* C1999 03 15.19948 10 52 26.26 +23 46 18.9          17.6        704
     J99E05E  C1999 03 15.21750 10 52 19.70 +23 44 22.6                      704
     J99E05E  C1999 03 15.23560 10 52 13.20 +23 42 26.1          18.4        704
     J99E05E  C1999 03 15.25365 10 52 06.64 +23 40 30.1          18.0        704
     J99E05E  C1999 03 15.27168 10 52 00.00 +23 38 34.8          18.9        704
     J99E05E  C1999 03 15.83759 10 48 44.62 +22 36 53.0                      557
     J99E05E  C1999 03 15.84082 10 48 43.52 +22 36 32.5                      557
     J99E05E  C1999 03 15.84166 10 48 43.22 +22 36 27.2                      557
     J99E05E  C1999 03 15.88119 10 48 29.39 +22 32 09.7                      587
     J99E05E  C1999 03 15.88345 10 48 28.58 +22 31 54.9                      587
     J99E05E  C1999 03 15.88613 10 48 27.62 +22 31 37.7                      587
     J99E05E  C1999 03 15.92118 10 48 15.10 +22 27 45.7          16.2 R      611
     J99E05E  C1999 03 15.92292 10 48 14.50 +22 27 34.2                      611
     J99E05E  C1999 03 15.92465 10 48 13.87 +22 27 22.8                      611
     J99E05E  C1999 03 15.92639 10 48 13.26 +22 27 11.7                      611
     J99E05E  C1999 03 16.26713 10 46 15.30 +21 49 44.4          16.2 R      744
     J99E05E  C1999 03 16.28090 10 46 10.42 +21 48 12.7          15.9 R      744
     J99E05E  C1999 03 16.29410 10 46 05.73 +21 46 44.9          16.0 R      744
     J99E05E  C1999 03 16.31534 10 46 00.75 +21 44 35.7          16.9        625
     J99E05E  C1999 03 16.32029 10 45 59.01 +21 44 03.5          16.5        625
     J99E05E  C1999 03 16.33494 10 45 53.79 +21 42 26.3          16.4        625
     J99E05E  C1999 03 16.34761 10 45 49.27 +21 41 03.0          16.2        625
     J99E05E  C1999 03 16.45788 10 45 12.13 +21 29 15.1          16.7 R      422
     J99E05E  C1999 03 16.45866 10 45 11.84 +21 29 10.2          16.8 R      422
     J99E05E  C1999 03 16.45914 10 45 11.68 +21 29 06.8          16.9 R      422
     J99E05E  C1999 03 16.46200 10 45 10.66 +21 28 47.9          16.8 R      422
     J99E05E  C1999 03 16.50738 10 44 55.08 +21 23 06.1          16.4 V      402
     J99E05E  C1999 03 16.50991 10 44 54.20 +21 22 49.3                      402
     J99E05E  C1999 03 16.51117 10 44 53.75 +21 22 41.2                      402
     J99E05E  C1999 03 16.77854 10 43 23.42 +20 52 41.9                      104
     J99E05E  C1999 03 16.78021 10 43 22.89 +20 52 31.2                      104
     J99E05E  C1999 03 16.78252 10 43 22.13 +20 52 15.6                      104
     J99E05E  C1999 03 16.78564 10 43 21.06 +20 51 56.2                      104
     J99E05E  C1999 03 16.78808 10 43 20.17 +20 51 38.5          16.3 V      104
     J99E05E  C1999 03 16.81109 10 43 12.07 +20 49 02.4          17.0 R      151
     J99E05E  C1999 03 16.81527 10 43 10.69 +20 48 35.6          16.9 R      151
     J99E05E  C1999 03 16.81907 10 43 09.41 +20 48 10.9                      151
     J99E05E  C1999 03 16.82256 10 43 08.22 +20 47 46.5                      151
     J99E05E  C1999 03 16.82801 10 43 06.31 +20 47 09.8          16.0 R      151
     J99E05E  C1999 03 16.87662 10 42 49.64 +20 41 48.8          16.3 V      620
     J99E05E  C1999 03 16.87847 10 42 48.99 +20 41 36.4          16.2 V      620
     J99E05E  C1999 03 16.88090 10 42 48.14 +20 41 19.7          16.3 V      620
     J99E05E  C1999 03 16.88483 10 42 46.80 +20 40 53.5          16.4 V      620
     J99E05E  C1999 03 17.08130 10 41 41.29 +20 18 54.0          15.7 R      758
     J99E05E  C1999 03 17.08410 10 41 40.28 +20 18 35.5          15.8 R      758
     J99E05E  C1999 03 17.08715 10 41 39.20 +20 18 14.9          16.0 R      758
     J99E05E  C1999 03 17.09012 10 41 38.17 +20 17 55.3          15.7 R      758
     J99E05E  C1999 03 17.13860 10 41 21.25 +20 12 29.0          16.1 R      761
     J99E05E  C1999 03 17.14427 10 41 19.22 +20 11 51.6          16.3 R      761
     J99E05E  C1999 03 17.15365 10 41 16.01 +20 10 47.2          16.6 R      761
     J99E05E  C1999 03 17.15972 10 41 13.89 +20 10 06.3          16.4 R      761
     J99E05E  C1999 03 17.49253 10 39 22.70 +19 32 59.8          16.6 R      422
     J99E05E  C1999 03 17.49334 10 39 22.41 +19 32 54.3          16.6 R      422
     J99E05E  C1999 03 17.49464 10 39 21.94 +19 32 45.3                      422

Observer details:
104 San Marcello Pistoiese.  Observers L. Tesi, A.Caronia, A. Boattini,
    M. Tombelli.  Measurers  G. Forti, L. Tesi, A. Boattini, M. Tombelli.
    0.40-m f/5 reflector + CCD.
151 Eschenberg Observatory, Winterthur.  Observer M. Griesser.  0.25-m f/8.0
    reflector + CCD.
402 Dynic Astronomical Observatory.  Observer A. Sugie.  0.60-m f/3.7 reflector
    + CCD.
422 Loomberah.  Observer G. J. Garradd.  0.45-m f/5.4 reflector + CCD.
557 Ondrejov.  Observer P. Pravec.  0.65-m f/3.6 reflector + CCD.
587 Sormano.  Observers F. Manca, V. Giuliani.  0.5-m reflector + CCD.
611 Starkenburg.  Observers M. Busch, S. Kluegl.  0.45-m f/4.4 reflector + CCD.
620 Observatorio Astronomico de Mallorca.  Observers A. Lopez, R. Pacheco.
    0.30-m f/3.3 Schmidt-Cassegrain + CCD.
625 Kihei-AMOS Remote Maui Experimental Site.  Observers J. Africano,
    D. Nishimoto, J. Pye, P. Kervin, B. Africano.  Measurers J. Africano,
    V. Soo Hoo, P. Sydney.  0.30-m Schmidt-Cassegrain + CCD.
704 Lincoln Laboratory ETS, New Mexico.  Observers M. Blythe, F. Shelly,
    M. Bezpalko.  Measurers J. Stuart, H. Viggh, R. Sayer.  1.0-m f/2.15
    reflector + CCD.
744 Doyan Rose Observatory, Indianapolis.  Observer J. Ruthroff.  0.25-m
    Schmidt-Cassegrain + CCD.
758 BCC Observatory, Cocoa.  Observer I. P. Griffin.  0.30-m f/5 Maksutov
    + CCD.
761 Zephyrhills.  Observer R. A. Kowalski.  0.178-m f/9.45 reflector + CCD.

Orbital elements:
1999 EE5
Epoch 1999 Mar. 3.0 TT = JDT 2451240.5                  Williams
M 344.65635              (2000.0)            P               Q
n   0.45239903     Peri.  192.60612     -0.98744303     +0.15275728
a   1.6805635      Node   355.54458     -0.05616371     -0.57770610
e   0.2855777      Incl.   31.22205     -0.14765469     -0.80182347
P   2.18           H   18.3           G   0.15
From 54 observations 1999 Mar. 15-17.

Ephemeris:
1999 EE5                 a,e,i = 1.68, 0.29, 31                  q = 1.2006
Date    TT    R. A. (2000) Decl.     Delta      r     Elong.  Phase     V
1999 03 13    11 05.43   +27 34.5    0.242    1.217   154.9    20.3    16.7
1999 03 18    10 36.57   +18 34.8    0.233    1.211   155.2    20.2    16.6
1999 03 23    10 11.12   +08 53.7    0.236    1.206   149.5    24.8    16.7
1999 03 28    09 50.09   -00 20.4    0.250    1.203   141.1    31.4    17.0
1999 04 02    09 33.59   -08 22.2    0.273    1.201   132.7    37.7    17.4
1999 04 07    09 21.22   -14 58.8    0.302    1.201   125.3    42.8    17.8
1999 04 12    09 12.43   -20 18.5    0.335    1.202   119.2    46.7    18.1
1999 04 17    09 06.68   -24 36.2    0.371    1.204   114.2    49.5    18.4
1999 04 22    09 03.48   -28 07.1    0.409    1.208   110.1    51.4    18.7
1999 04 27    09 02.42   -31 03.5    0.447    1.214   106.8    52.5    18.9
1999 05 02    09 03.15   -33 34.4    0.485    1.220   104.1    53.2    19.1
1999 05 07    09 05.44   -35 46.2    0.523    1.228   101.8    53.5    19.3
1999 05 12    09 09.12   -37 44.0    0.561    1.238   100.0    53.5    19.5
1999 05 17    09 14.10   -39 31.4    0.597    1.248    98.5    53.3    19.6
1999 05 22    09 20.28   -41 11.4    0.633    1.260    97.3    52.9    19.7
1999 05 27    09 27.61   -42 45.9    0.667    1.272    96.3    52.3    19.9
1999 06 01    09 36.04   -44 16.2    0.700    1.286    95.5    51.7    20.0
1999 06 06    09 45.58   -45 43.3    0.732    1.300    94.8    51.0    20.1
1999 06 11    09 56.26   -47 07.6    0.764    1.316    94.3    50.3    20.2
1999 06 16    10 08.12   -48 29.7    0.794    1.332    94.0    49.5    20.3
1999 06 21    10 21.19   -49 49.7    0.823    1.349    93.7    48.8    20.4
1999 06 26    10 35.51   -51 07.4    0.852    1.366    93.5    48.0    20.4
1999 07 01    10 51.12   -52 22.1    0.881    1.384    93.4    47.2    20.5
1999 07 06    11 08.08   -53 33.3    0.910    1.402    93.2    46.4    20.6
1999 07 11    11 26.44   -54 39.8    0.938    1.421    93.1    45.6    20.7

1999 07 21    12 07.33   -56 35.0    0.997    1.459    92.9    44.1    20.8
1999 07 31    12 53.33   -57 58.1    1.058    1.498    92.5    42.6    21.0
1999 08 10    13 43.11   -58 38.9    1.125    1.537    91.8    41.2    21.1
1999 08 20    14 34.52   -58 32.1    1.198    1.577    90.6    39.9    21.3
1999 08 30    15 24.98   -57 37.6    1.279    1.616    89.0    38.7    21.4
1999 09 09    16 12.44   -56 00.9    1.368    1.655    86.9    37.4    21.6
1999 09 19    16 55.83   -53 51.4    1.465    1.693    84.3    36.2    21.7
1999 09 29    17 34.89   -51 18.7    1.570    1.730    81.3    34.9    21.9
1999 10 09    18 09.94   -48 31.2    1.682    1.766    77.8    33.6    22.1

Gareth V. Williams           (C) Copyright 1999 MPC           M.P.E.C. 1999-F05

Read MPEC 1999-F04 Read MPEC 1999-F06


Our Web policy. Index to the CBAT/MPC/ICQ pages.


Valid HTML 4.01!